Location: Karlsruhe
(49.0131°N, 8.3874°E)
Time: 08:50:23
(UTC+02:00)

ISS - Visible Passes

Search period start: 28 May 2017 00:00
Search period end: 07 June 2017 00:00
Orbit: 402 x 408 km, 51.6° (Epoch: 28 May)

Date Brightness Start Highest point End Pass type
(mag) Time Alt. Az. Time Alt. Az. Time Alt. Az.
28 May -3.0 00:06:09 10° W 00:09:24 51° N 00:12:38 10° ENE visible
28 May -3.8 01:42:49 10° WNW 01:46:07 79° NNE 01:47:25 34° E visible
28 May -1.5 03:19:34 10° W 03:19:57 12° W 03:19:57 12° W visible
28 May -3.1 23:14:01 10° W 23:17:17 56° N 23:20:33 10° ENE visible
29 May -3.4 00:50:45 10° WNW 00:54:02 62° NNE 00:56:01 21° E visible
29 May -2.0 02:27:21 10° WNW 02:28:37 20° W 02:28:37 20° W visible
29 May -3.4 22:21:52 10° W 22:25:10 68° NNW 22:28:28 10° ENE visible
29 May -3.1 23:58:40 10° WNW 00:01:55 53° N 00:05:08 10° E visible
30 May -3.3 01:35:13 10° WNW 01:37:46 47° W 01:37:46 47° W visible
30 May -2.9 23:06:31 10° WNW 23:09:46 51° N 23:13:00 10° ENE visible
31 May -3.9 00:43:08 10° WNW 00:46:27 88° NNE 00:47:05 56° ESE visible
31 May -3.0 22:14:21 10° W 22:17:36 54° N 22:20:51 10° ENE visible
31 May -3.5 23:51:03 10° WNW 23:54:21 67° NNE 23:56:29 20° E visible
01 Jun -2.0 01:27:41 10° W 01:29:07 21° W 01:29:07 21° W visible
01 Jun -3.2 22:58:56 10° WNW 23:02:12 56° N 23:05:27 10° E visible
02 Jun -3.7 00:35:29 10° WNW 00:38:36 55° SW 00:38:36 55° SW visible
02 Jun -2.9 22:06:46 10° WNW 22:10:01 51° N 22:13:15 10° E visible
02 Jun -3.9 23:43:21 10° WNW 23:46:40 82° SSW 23:48:06 31° ESE visible
03 Jun -1.2 01:20:24 10° W 01:20:44 12° W 01:20:44 12° W visible
03 Jun -3.6 22:51:14 10° WNW 22:54:32 74° NNE 22:57:38 11° ESE visible
04 Jun -2.5 00:27:55 10° W 00:30:17 28° SW 00:30:17 28° SW visible
04 Jun -3.4 23:35:39 10° WNW 23:38:51 47° SSW 23:39:51 33° SSE visible
05 Jun -3.8 22:43:27 10° WNW 22:46:45 72° SSW 22:49:26 14° ESE visible
06 Jun -1.6 00:20:43 10° W 00:22:05 15° WSW 00:22:05 15° WSW visible
06 Jun -2.4 23:28:04 10° W 23:30:52 25° SW 23:31:42 22° S visible
